Wind_Speed
29 28 25 25 25 24 25 25 24 24 23 22 22 22 22 22 22 22 22 21 22 22 21 21 20 20 19 18 18 17 16 16 13 12 13 13 15 16 17 15 13 14 14
39 30 29 27 26 26 26 25 24 23 23 22 21 22 22 22 21 21 21 20 21 21 21 21 22 23 22 21 20 17 17 16 14 10 12 14 15 17 17 18 15 15 15
39 28 29 29 28 27 26 25 24 23 22 23 22 21 22 22 21 20 20 20 21 20 20 21 23 25 25 23 20 18 19 22 14 14 14 14 18 17 16 15 15 15 15
37 34 30 29 28 27 26 24 23 22 22 22 22 22 21 22 20 19 20 21 21 20 19 21 23 24 25 23 20 20 24 27 15 20 18 14 16 16 15 14 14 14 12
33 35 31 29 28 26 26 24 24 22 22 22 22 21 20 20 20 21 21 21 21 19 20 21 22 24 25 26 23 21 27 25 18 13 14 16 17 16 15 15 15 14 13
32 34 31 27 26 26 25 25 24 23 22 21 21 20 20 19 20 21 22 20 19 19 19 19 20 21 22 25 22 23 24 26 10 15 17 18 18 15 14 15 15 15 15
36 33 30 26 24 25 25 23 23 22 20 20 20 19 19 20 21 21 20 19 18 17 16 16 16 17 18 22 21 20 21 25 21 12 15 16 16 15 15 13 14 15 16
37 30 30 24 18 24 23 22 21 21 20 20 19 19 19 20 20 20 18 16 16 15 13 13 12 13 14 17 19 19 18 25 18 9 12 13 13 12 13 12 12 13 13
29 26 23 26 16 20 23 23 21 19 18 19 19 19 19 18 17 15 13 13 12 11 10 9 10 11 12 12 14 19 17 22 17 9 10 12 12 11 11 10 11 11 11
25 27 25 19 18 21 22 21 21 19 18 19 20 21 19 17 14 13 9 9 8 8 8 9 12 11 12 17 8 17 16 17 23 8 12 13 12 11 11 9 9 10 10
20 21 23 21 19 22 21 21 21 19 20 20 19 17 15 13 11 8 9 7 7 8 7 9 10 10 11 12 12 11 12 13 18 14 14 12 11 12 12 10 9 10 12
28 30 27 22 24 22 21 21 23 21 21 18 15 14 13 11 9 6 4 6 6 6 7 6 12 6 10 9 10 9 10 8 12 15 16 11 12 10 10 8 9 10 12
31 28 25 25 25 25 24 24 22 19 18 14 10 13 9 10 8 8 5 5 5 7 9 11 11 9 10 12 13 14 8 7 9 11 13 11 11 7 9 9 10 12 13
28 31 30 28 28 23 24 24 21 21 18 16 12 13 11 13 10 9 9 7 8 7 6 8 10 13 12 12 14 13 12 12 10 14 13 13 9 6 6 6 9 10 13
30 30 30 26 27 25 23 27 24 21 20 14 12 11 9 7 5 4 2 7 4 5 9 10 10 11 9 9 10 13 14 15 13 15 13 10 10 11 1 6 8 9 10
30 28 25 26 24 25 29 26 23 19 16 13 13 11 4 3 4 3 4 5 5 9 8 6 8 9 10 11 12 15 16 17 11 10 17 16 13 11 4 4 5 6 7
30 29 23 27 21 27 27 24 21 17 12 11 8 7 5 4 4 7 9 9 8 9 7 6 5 6 7 10 11 13 17 11 12 14 14 20 11 7 4 4 5 5 7
32 30 27 26 22 25 23 21 17 8 7 7 9 13 14 14 12 10 7 6 5 6 7 5 7 9 12 13 13 14 12 19 17 16 18 20 17 9 8 3 5 6 7
37 35 30 26 26 24 22 20 11 8 6 8 13 13 13 12 9 8 3 5 5 5 6 9 11 13 14 13 14 13 16 12 14 14 15 20 19 2 2 3 4 5 9
39 36 32 30 28 26 23 20 10 10 9 14 14 12 11 9 7 9 9 7 6 5 8 11 13 11 13 15 14 13 11 14 11 13 16 18 17 17 8 9 10 10 13
38 38 36 33 29 24 23 20 14 16 17 18 16 13 14 11 7 3 2 5 8 9 11 12 14 15 16 11 10 16 16 9 13 14 15 16 17 16 14 14 10 11 8
35 36 35 33 29 21 25 22 19 20 21 16 13 13 12 10 6 5 6 6 8 11 10 11 14 16 11 8 9 11 3 10 10 17 16 17 14 16 18 19 15 8 8
33 34 35 34 27 22 23 22 23 23 24 21 18 15 9 6 6 4 2 2 4 6 9 12 12 8 7 9 8 5 3 1 4 3 10 11 16 17 17 22 13 10 14
29 23 27 26 26 26 20 27 33 30 23 19 19 14 12 10 6 3 2 5 8 12 13 13 14 14 12 5 5 5 9 7 1 4 9 9 16 20 21 20 18 18 14
27 25 21 26 22 20 29 24 23 27 26 26 21 16 9 5 2 1 5 8 12 11 12 13 13 5 3 5 8 10 10 7 10 2 2 9 15 15 18 16 21 19 18
22 25 22 25 21 20 23 26 28 29 26 22 15 10 6 3 2 2 5 9 9 11 12 11 4 6 6 8 11 6 7 4 3 3 2 4 11 17 14 17 19 20 24
Wind_Direction
149 151 151 146 142 137 131 124 119 114 108 102 98 94 92 91 90 87 84 79 75 73 71 68 63 62 59 56 54 53 54 57 50 58 61 52 54 47 43 43 42 41 41
149 153 148 146 141 136 129 124 118 112 107 103 99 95 94 94 91 88 85 81 79 75 71 68 67 66 62 57 58 57 50 40 33 40 74 52 56 50 44 41 42 47 39
145 148 143 142 140 136 129 124 119 114 111 106 101 98 99 96 94 89 85 81 79 77 74 71 70 66 60 56 56 49 37 25 46 79 93 61 47 46 45 36 37 39 33
141 144 146 143 140 135 131 124 120 116 112 108 104 104 102 99 94 89 86 85 84 81 77 75 71 65 59 52 48 43 37 42 94 89 93 60 40 43 40 39 40 38 34
139 145 144 142 137 134 129 124 119 117 109 107 106 106 102 99 95 93 92 91 91 86 82 77 71 63 53 46 50 47 41 54 91 80 66 47 46 49 37 30 32 36 34
147 144 138 137 138 133 126 125 119 112 109 107 107 106 103 100 98 97 95 95 93 91 86 78 68 60 53 47 49 48 44 44 62 68 69 60 56 52 44 30 29 26 30
139 135 133 134 138 131 123 116 116 113 110 108 108 109 106 103 99 96 97 97 94 87 82 74 65 57 49 48 48 38 37 26 33 86 66 58 56 49 40 35 31 32 30
124 127 126 125 135 117 122 123 121 118 114 113 112 109 108 105 102 101 102 97 92 90 80 67 54 48 39 40 45 37 32 24 41 94 65 60 56 44 32 21 17 21 24
111 112 106 107 123 132 128 129 123 116 113 111 111 111 109 107 107 106 102 99 92 81 72 54 41 36 33 17 32 31 32 24 39 60 51 48 42 37 25 10 5 7 11
97 100 109 125 144 135 132 128 117 110 109 117 117 110 109 111 107 104 106 98 89 76 63 53 44 38 28 27 18 26 24 13 22 32 40 30 29 28 23 19 7 359 354
125 124 154 162 153 139 131 118 113 114 120 122 117 117 111 126 110 86 80 86 76 61 64 49 35 30 37 17 24 28 12 4 10 9 20 26 23 29 16 17 30 25 13
149 159 168 168 152 133 130 125 121 121 119 124 116 125 124 127 129 73 91 82 56 57 49 31 29 71 24 42 15 353 344 8 14 0 2 18 16 42 34 28 20 27 31
166 162 166 157 148 137 139 135 130 129 131 128 126 138 131 120 119 90 121 68 72 82 59 61 58 63 34 27 24 0 358 350 351 353 344 345 354 42 54 51 48 50 40
167 162 159 153 146 145 144 142 143 145 145 143 122 132 110 113 122 98 103 50 73 75 56 35 22 15 17 30 22 27 19 5 360 335 315 313 345 0 66 71 67 59 49
146 156 160 165 160 161 163 151 149 155 157 145 139 110 112 120 151 175 14 33 60 27 24 33 30 28 18 9 12 15 11 359 358 359 348 325 325 319 219 105 84 69 55
151 159 148 151 154 160 151 151 151 154 138 137 125 104 91 153 205 169 74 61 42 52 49 40 25 29 32 14 348 340 333 340 334 346 358 331 313 298 214 133 85 69 55
154 160 155 157 151 156 148 156 158 135 124 123 110 103 132 164 136 93 97 100 78 58 36 21 10 348 358 356 348 332 329 320 325 328 335 358 329 301 205 134 74 60 45
148 162 163 165 158 158 158 159 150 117 109 101 106 107 96 95 99 98 108 78 43 49 28 19 10 354 348 344 339 340 351 338 334 331 338 335 323 293 211 145 53 42 31
155 162 159 164 163 164 168 160 135 110 101 115 112 111 101 105 98 97 76 24 32 31 26 11 3 357 348 347 347 342 334 355 0 346 9 29 31 351 303 232 69 51 42
160 161 163 167 169 174 173 166 131 149 135 129 114 115 113 108 109 89 92 80 60 27 1 351 353 346 340 334 336 344 331 327 355 5 13 9 21 27 12 32 1 344 342
158 161 162 167 170 169 176 165 164 165 151 138 135 126 110 113 117 99 10 347 338 343 347 348 347 343 339 329 331 342 331 313 345 1 12 14 9 13 2 2 3 347 326
160 166 166 169 170 171 171 174 179 166 161 160 155 149 155 130 133 49 14 351 336 335 331 332 336 332 329 358 355 349 355 319 3 344 342 349 6 5 10 3 360 29 16
155 168 173 172 174 175 171 186 172 167 155 147 152 150 141 121 96 93 93 10 7 359 348 335 331 338 337 345 357 15 3 327 331 29 338 358 348 2 359 354 358 9 353
153 160 166 177 173 176 183 161 164 155 162 171 155 145 136 133 144 200 275 325 328 329 331 329 316 311 308 4 345 348 356 343 16 351 356 3 347 340 336 344 351 349 351
155 157 168 168 176 193 166 167 171 149 134 135 135 138 152 169 204 285 320 312 323 336 335 328 312 291 9 27 12 346 339 343 341 21 298 334 342 341 330 330 337 334 334
163 165 183 161 145 151 162 154 153 148 142 141 150 164 171 148 104 334 330 335 341 338 332 330 351 347 338 336 331 323 322 313 312 303 274 310 314 321 322 323 323 320 325
Height
812 814 820 823 825 828 830 832 834 835 836 840 842 843 845 847 849 850 852 854 855 853 853 852 853 852 853 852 851 852 853 852 852 852 852 852 852 851 850 850 848 847 847
805 816 817 822 827 831 831 834 835 838 839 841 845 846 847 848 852 852 853 856 855 856 856 857 856 855 855 854 853 854 855 855 854 854 855 854 854 852 852 851 850 848 848
805 817 818 823 829 832 833 835 836 838 840 842 846 849 850 849 853 854 854 857 858 859 860 859 859 858 857 857 857 856 857 855 854 853 855 856 854 853 853 852 851 849 849
806 810 822 827 830 832 834 835 838 840 842 844 846 849 852 850 855 855 857 858 859 862 862 861 861 861 860 860 859 858 858 854 854 855 856 856 855 856 856 854 851 850 851
811 816 823 828 830 834 834 837 838 843 844 846 847 850 852 853 855 855 856 860 861 864 864 864 863 863 864 863 861 860 859 859 858 858 858 858 857 857 858 857 854 852 852
813 818 822 829 833 833 834 838 840 842 847 848 849 853 853 856 856 857 857 862 863 864 864 865 865 865 866 865 864 863 862 862 862 861 857 859 859 858 858 859 856 855 853
813 819 824 830 834 833 835 837 841 844 848 849 850 853 855 856 858 858 860 863 864 866 867 867 867 867 868 866 865 867 862 865 863 861 860 860 859 858 859 859 859 856 854
810 821 825 832 831 832 836 841 844 846 847 848 852 854 856 858 859 860 862 865 865 865 868 868 869 867 869 868 867 868 865 866 863 863 861 860 860 859 859 860 860 858 856
816 820 830 832 841 838 838 843 846 847 848 850 853 856 856 858 861 862 863 863 865 867 867 869 870 869 868 870 869 867 868 867 865 864 863 863 861 858 858 860 860 858 857
825 829 831 834 841 839 843 844 844 847 850 853 854 855 857 859 861 863 864 864 866 868 869 870 870 870 869 869 869 868 869 867 866 865 863 864 862 860 858 858 858 858 857
831 831 833 832 839 842 844 844 844 847 851 854 855 856 859 861 862 864 865 867 868 868 870 871 870 871 870 869 869 869 869 867 868 866 862 865 863 861 859 859 858 856 857
830 831 833 837 840 841 843 843 845 850 853 855 855 857 858 861 862 863 865 868 869 870 870 870 870 869 870 869 868 869 869 867 867 866 863 863 863 861 859 859 858 856 857
827 831 838 840 839 841 843 844 846 850 853 855 855 856 860 861 863 864 865 868 869 870 869 870 869 869 869 869 869 868 868 867 866 865 864 863 863 861 860 859 859 856 857
827 830 834 838 838 841 843 845 847 849 852 854 855 858 858 861 863 865 866 868 870 869 867 869 868 869 868 867 868 868 867 867 865 864 862 861 861 859 858 859 858 857 856
825 830 834 838 838 842 845 847 848 849 849 852 856 856 859 861 862 863 864 866 868 868 867 867 868 868 867 867 867 866 866 866 864 863 860 861 858 857 856 856 856 855 854
825 830 834 836 838 841 844 846 847 847 850 854 856 855 858 860 862 862 863 866 868 867 867 868 868 867 866 865 865 865 865 864 862 861 860 859 856 855 854 854 854 854 853
824 828 833 836 838 841 843 845 847 848 851 854 855 855 857 860 861 862 863 865 866 866 867 866 866 864 864 864 865 865 863 861 859 858 858 856 855 853 852 853 853 853 852
819 827 831 836 837 841 842 844 847 850 852 852 855 856 856 858 862 862 863 863 866 866 865 864 864 863 863 863 863 862 861 860 858 857 855 854 853 852 851 851 851 850 851
814 820 829 834 837 839 841 845 849 851 854 854 855 857 857 859 860 861 863 865 866 865 864 863 862 862 861 860 859 859 858 858 857 856 855 854 852 854 853 852 849 848 849
813 822 825 829 833 836 840 845 849 853 855 856 856 856 857 858 861 863 864 865 865 864 862 862 861 861 860 858 857 856 856 856 855 854 855 855 855 855 854 852 849 847 846
814 816 820 824 830 834 840 842 848 851 854 855 855 855 857 860 863 864 864 863 863 862 861 861 860 859 858 856 854 853 853 853 853 853 854 853 853 854 854 852 850 847 844
811 814 817 822 826 833 837 841 845 848 851 852 852 855 858 860 861 861 862 863 862 861 860 859 858 857 856 854 853 852 852 851 852 853 853 853 853 852 851 850 848 846 844
810 813 816 821 824 829 834 839 844 846 849 851 852 855 857 859 859 859 859 859 859 858 858 857 857 855 854 854 853 854 854 855 852 851 852 853 851 850 850 850 848 846 845
811 813 817 820 823 827 833 835 837 841 844 847 850 854 856 856 856 856 855 855 856 856 855 855 855 854 852 852 853 853 854 853 852 852 851 851 850 850 849 848 846 844 843
809 812 816 819 823 826 829 831 834 838 841 844 849 852 854 854 854 854 854 854 854 854 854 854 853 852 851 852 852 853 853 852 852 851 851 849 849 848 848 845 844 842 840
808 812 816 820 822 823 825 828 831 833 838 843 847 849 851 851 852 853 853 853 854 854 853 853 853 852 851 851 851 852 851 851 849 847 847 845 844 844 845 844 842 840 837